Date String (YYYY-MM-DD hh:mm:ss) UTC,Instrument flags,Ambient pressure (hPa),Sample flow (lpm),Bypass flow (lpm),Sample temperature (°C),Ambient temperature (°C),ASC tube jacket temperature (°C),LED temperature (°C),Box temperature (°C),Sample RH (%),Span deviation,Mass concentration (μg/m³),Mass concentration (μg/m³),Mass concentration (μg/m³)
DateTimeUTC,F1_M11,P_M11,Q1_M11,Q2_M11,T1_M11,T2_M11,T3_M11,T4_M11,T5_M11,U1_M11,ZSPAN_M11,X2_M11,X0_M11,X1_M11
2022-10-22 15:00:00,,0813.3,5.02,0.00,29.3,28.1,00.0,38.1,31.2,08.2,0000.0,0005.46,0010.89,0005.00
2022-10-22 15:01:00,,0813.3,4.99,0.00,29.3,28.1,00.0,38.1,31.2,08.2,0000.0,0005.47,0010.99,0005.01
2022-10-22 15:02:00,,0813.5,5.01,0.00,29.3,28.2,00.0,38.1,31.2,08.2,0000.0,0005.46,0010.83,0005.01
2022-10-22 15:03:00,,0813.4,4.98,0.00,29.4,28.2,00.0,38.1,31.2,08.3,0000.0,0005.45,0010.74,0005.00
2022-10-22 15:04:00,,0813.4,5.01,0.00,29.4,28.2,00.0,38.1,31.3,08.4,0000.0,0005.46,0010.75,0005.01
2022-10-22 15:05:00,,0813.5,5.01,0.00,29.4,28.2,00.0,38.2,31.3,08.3,0000.0,0005.47,0010.90,0005.02
2022-10-22 15:06:00,,0813.4,4.98,0.00,29.4,28.2,00.0,38.2,31.3,08.4,0000.0,0005.47,0010.00,0005.03
2022-10-22 15:07:00,,0813.4,5.01,0.00,29.4,28.3,00.0,38.2,31.3,08.4,0000.0,0005.50,0010.35,0005.04
2022-10-22 15:08:00,,0813.4,4.99,0.00,29.5,28.3,00.0,38.2,31.3,08.5,0000.0,0005.51,0010.41,0005.04
2022-10-22 15:09:00,,0813.4,5.00,0.00,29.5,28.3,00.0,38.2,31.3,08.5,0000.0,0005.51,0010.32,0005.04
2022-10-22 15:10:00,,0813.4,5.01,0.00,29.5,28.3,00.0,38.2,31.4,08.4,0000.0,0005.48,0009.89,0005.06
2022-10-22 15:11:00,,0813.4,5.00,0.00,29.5,28.3,00.0,38.3,31.4,08.3,0000.0,0005.50,0009.86,0005.07
2022-10-22 15:12:00,,0813.5,4.98,0.00,29.5,28.4,00.0,38.3,31.4,08.2,0000.0,0005.50,0010.59,0005.07
2022-10-22 15:13:00,,0813.4,5.00,0.00,29.6,28.4,00.0,38.3,31.4,08.4,0000.0,0005.50,0011.14,0005.06
2022-10-22 15:14:00,,0813.4,5.01,0.00,29.6,28.4,00.0,38.3,31.4,08.3,0000.0,0005.49,0011.18,0005.04
2022-10-22 15:15:00,,0813.4,5.00,0.00,29.6,28.4,00.0,38.3,31.5,08.4,0000.0,0005.47,0011.10,0005.02
2022-10-22 15:16:00,,0813.4,4.98,0.00,29.6,28.4,00.0,38.4,31.5,08.4,0000.0,0005.46,0010.88,0005.01
2022-10-22 15:17:00,,0813.4,5.01,0.00,29.6,28.5,00.0,38.4,31.5,08.4,0000.0,0005.46,0010.86,0004.99
2022-10-22 15:18:00,,0813.4,5.01,0.00,29.7,28.5,00.0,38.4,31.5,08.4,0000.0,0005.41,0010.34,0004.98
2022-10-22 15:19:00,,0813.5,4.98,0.00,29.7,28.5,00.0,38.4,31.5,08.5,0000.0,0005.36,0010.05,0004.95
2022-10-22 15:20:00,,0813.5,5.01,0.00,29.7,28.5,00.0,38.4,31.5,08.3,0000.0,0005.29,0010.36,0004.93
2022-10-22 15:21:00,,0813.4,5.00,0.00,29.7,28.5,00.0,38.4,31.6,08.2,0000.0,0005.30,0010.45,0004.92
2022-10-22 15:22:00,,0813.4,5.01,0.00,29.7,28.6,00.0,38.5,31.6,08.1,0000.0,0005.30,0010.78,0004.90
2022-10-22 15:23:00,,0813.4,4.99,0.00,29.8,28.6,00.0,38.5,31.6,08.4,0000.0,0005.29,0010.01,0004.90
2022-10-22 15:24:00,,0813.4,5.00,0.00,29.8,28.6,00.0,38.5,31.6,08.4,0000.0,0005.28,0009.34,0004.90
2022-10-22 15:25:00,,0813.4,4.98,0.00,29.8,28.6,00.0,38.5,31.6,08.4,0000.0,0005.26,0009.28,0004.90
2022-10-22 15:26:00,,0813.4,5.01,0.00,29.8,28.6,00.0,38.6,31.7,08.4,0000.0,0005.24,0009.34,0004.90
2022-10-22 15:27:00,,0813.5,5.01,0.00,29.8,28.7,00.0,38.6,31.7,08.5,0000.0,0005.25,0009.30,0004.92
2022-10-22 15:28:00,,0813.5,5.00,0.00,29.9,28.7,00.0,38.6,31.7,08.5,0000.0,0005.28,0009.68,0004.93
2022-10-22 15:29:00,,0813.6,5.00,0.00,29.9,28.7,00.0,38.6,31.7,08.7,0000.0,0005.34,0011.67,0004.95
2022-10-22 15:30:00,,0813.5,5.01,0.00,29.9,28.7,00.0,38.6,31.8,08.8,0000.0,0005.41,0013.01,0004.96
2022-10-22 15:31:00,,0813.5,5.01,0.00,29.9,28.7,00.0,38.6,31.8,09.0,0000.0,0005.50,0012.92,0004.98
2022-10-22 15:32:00,,0813.4,5.00,0.00,29.9,28.8,00.0,38.7,31.8,08.8,0000.0,0005.52,0013.04,0004.98
2022-10-22 15:33:00,,0813.4,4.98,0.00,29.9,28.8,00.0,38.7,31.9,08.4,0000.0,0005.49,0013.38,0004.98
2022-10-22 15:34:00,,0813.4,5.01,0.00,30.0,28.8,00.0,38.7,31.9,08.3,0000.0,0005.52,0014.90,0004.99
2022-10-22 15:35:00,,0813.4,5.01,0.00,30.0,28.8,00.0,38.7,31.9,08.8,0000.0,0005.61,0016.31,0005.01
2022-10-22 15:36:00,,0813.6,4.99,0.00,30.0,28.8,00.0,38.7,31.9,08.8,0000.0,0005.66,0017.33,0005.03
2022-10-22 15:37:00,,0813.4,4.99,0.00,30.0,28.8,00.0,38.8,31.9,08.6,0000.0,0005.70,0018.79,0005.03
2022-10-22 15:38:00,,0813.4,5.00,0.00,30.0,28.9,00.0,38.8,31.9,08.5,0000.0,0005.71,0020.39,0005.03
2022-10-22 15:39:00,,0813.4,5.01,0.00,30.0,28.9,00.0,38.8,31.9,08.7,0000.0,0005.67,0019.96,0005.02
2022-10-22 15:40:00,,0813.4,5.00,0.00,30.1,28.9,00.0,38.8,31.9,08.8,0000.0,0005.66,0018.22,0005.02
2022-10-22 15:41:00,,0813.4,5.00,0.00,30.1,28.9,00.0,38.8,31.9,08.9,0000.0,0005.64,0017.12,0005.03
2022-10-22 15:42:00,,0813.5,4.99,0.00,30.1,29.0,00.0,38.9,32.0,08.5,0000.0,0005.55,0016.63,0005.02
2022-10-22 15:43:00,,0813.5,5.00,0.00,30.1,29.0,00.0,38.9,32.0,08.6,0000.0,0005.51,0016.87,0005.00
2022-10-22 15:44:00,,0813.5,5.00,0.00,30.1,29.0,00.0,38.9,32.0,08.8,0000.0,0005.51,0016.30,0004.99
2022-10-22 15:45:00,,0813.5,5.01,0.00,30.2,29.0,00.0,38.9,32.0,08.9,0000.0,0005.50,0015.03,0005.00
2022-10-22 15:46:00,,0813.5,5.00,0.00,30.2,29.0,00.0,38.9,32.0,09.0,0000.0,0005.46,0014.67,0004.99
2022-10-22 15:47:00,,0813.5,5.00,0.00,30.2,29.0,00.0,38.9,32.0,08.5,0000.0,0005.43,0014.13,0004.97
2022-10-22 15:48:00,,0813.5,4.98,0.00,30.2,29.0,00.0,39.0,32.1,08.1,0000.0,0005.38,0013.06,0004.94
2022-10-22 15:49:00,,0813.5,5.00,0.00,30.2,29.1,00.0,39.0,32.1,08.0,0000.0,0005.34,0012.52,0004.91
2022-10-22 15:50:00,,0813.5,5.01,0.00,30.2,29.1,00.0,39.0,32.1,08.5,0000.0,0005.36,0012.89,0004.90
2022-10-22 15:51:00,,0813.5,4.98,0.00,30.3,29.1,00.0,39.0,32.1,08.7,0000.0,0005.35,0013.12,0004.88
2022-10-22 15:52:00,,0813.4,5.00,0.00,30.3,29.1,00.0,39.0,32.2,08.9,0000.0,0005.35,0014.28,0004.86
2022-10-22 15:53:00,,0813.4,5.00,0.00,30.3,29.2,00.0,39.0,32.2,09.0,0000.0,0005.36,0015.11,0004.85
2022-10-22 15:54:00,,0813.4,5.01,0.00,30.3,29.2,00.0,39.1,32.2,09.1,0000.0,0005.39,0014.87,0004.88
2022-10-22 15:55:00,,0813.4,5.00,0.00,30.3,29.2,00.0,39.1,32.2,08.9,0000.0,0005.42,0015.20,0004.88
2022-10-22 15:56:00,,0813.4,5.00,0.00,30.4,29.2,00.0,39.1,32.2,08.6,0000.0,0005.44,0016.11,0004.87
2022-10-22 15:57:00,,0813.4,5.00,0.00,30.4,29.2,00.0,39.1,32.2,08.9,0000.0,0005.42,0016.05,0004.84
2022-10-22 15:58:00,,0813.5,4.99,0.00,30.4,29.2,00.0,39.1,32.3,08.6,0000.0,0005.45,0015.89,0004.82
2022-10-22 15:59:00,,0813.5,4.99,0.00,30.4,28.3,00.0,39.1,32.3,08.4,0000.0,0005.43,0016.28,0004.78
